www.pogodaiklimat.ru

Погода и климат >> Архив погоды >> Австралия >> Северная территория >> Аэропорт Макартур Ривер Майн


ПОГОДА в Аэропорту Макартур Ривер Майн

  • Прогноз погоды в Аэропорту Макартур Ривер Майн
  • Монитор погоды в Аэропорту Макартур Ривер Майн

АРХИВ ПОГОДЫ в Аэропорту Макартур Ривер Майн

Время (UTC), дата Ветер
(напр.,м/с)
 
Видим.   Явления Облачность Т
(С)
Тd
(С)
f
(%)
Тe
(С)
Тes
(С)
Комфортность P
(гПа)
Po
(гПа)
Тmin
(С)
Tmax
(С)
R
(мм)
R24
(мм)
S
(см)
02 19.04 В 4 н/о н/о +33.6 +11.5 26 +33 +33 жарко 1014.4 1009.7 +21.4
05 19.04 С 3 н/о н/о +34.3 +6.6 18 +32 +32 жарко 1010.9 1006.2
08 19.04 В 3 н/о н/о +33.3 +7.3 20 +32 +32 жарко 1010.5 1005.8
11 19.04 СВ 4 н/о н/о +28.1 +19.9 61 +34 +34 очень
душно
1012.5 1007.8
14 19.04 СВ 3 н/о н/о +25.9 +21.8 78 +33 +33 очень
душно
1013.0 1008.3 +35.4
17 19.04 штиль 0 н/о н/о +23.1 +21.0 88 +31 +31 очень
душно
1012.1 1007.4
20 19.04 штиль 0 н/о н/о +21.4 +20.4 94 +27 +27 душно 1012.4 1007.7
23 19.04 ЮВ 1 н/о н/о +26.0 +21.9 78 +33 +33 очень
душно
1013.3 1008.6
02 20.04 В 4 н/о 1/0 2000 м
[]
+33.6 +12.0 27 +34 +34 очень
жарко
1012.8 1008.1 +20.8
05 20.04 ЮВ 3 н/о 3/0 2000 м
[]
+34.4 +10.9 24 +34 +34 очень
жарко
1010.2 1005.5
08 20.04 Ю 1 н/о 8/0
[]
+33.9 +11.1 25 +33 +33 жарко 1009.4 1004.7
11 20.04 СВ 4 н/о н/о +28.5 +19.7 59 +34 +34 очень
душно
1011.8 1007.1
14 20.04 СВ 2 н/о н/о +26.2 +21.4 75 +33 +33 очень
душно
1012.1 1007.4 +35.4
17 20.04 ЮЗ 1 н/о н/о +23.2 +20.7 86 +31 +31 очень
душно
1010.8 1006.1
20 20.04 З 1 н/о н/о +21.5 +20.1 92 +27 +27 душно 1010.8 1006.1
23 20.04 Ю 2 н/о н/о +26.6 +20.4 69 +33 +33 очень
душно
1012.4 1007.7
02 21.04 В 4 н/о н/о +33.1 +13.7 31 +34 +34 очень
жарко
1012.3 1007.6 +21.3
05 21.04 СВ 2 н/о 10/0 2000 м
[]
+33.9 +13.4 29 +35 +35 очень
жарко
1009.8 1005.1
08 21.04 С 2 н/о 5/0
[]
+32.4 +14.5 34 +34 +34 очень
жарко
1009.8 1005.1
11 21.04 СВ 2 н/о 1/0
[]
+27.9 +12.7 39 +29 +29 жарко 1012.0 1007.3
14 21.04 штиль 0 н/о н/о +25.0 +16.7 60 +29 +29 душно 1012.4 1007.7 +35.0
17 21.04 З 2 н/о н/о +21.6 +16.8 74 +26 +26 душно 1010.9 1006.2
20 21.04 штиль 0 н/о н/о +21.0 +17.6 81 +25 +25 комфорт 1011.7 1007.0
23 21.04 штиль 0 н/о н/о +26.3 +17.4 58 +30 +30 душно 1012.7 1008.0
02 22.04 ЮВ 4 н/о н/о +33.9 +11.1 25 +33 +33 жарко 1012.4 1007.7 +20.1
05 22.04 Ю 4 н/о 5/0
[]
+34.7 +6.9 18 +33 +33 жарко 1010.0 1005.3
08 22.04 Ю 2 н/о 8/0
[]
+33.8 +9.8 23 +33 +33 жарко 1010.2 1005.5
11 22.04 С 2 н/о н/о +27.6 +15.6 48 +31 +31 душно 1012.4 1007.7
14 22.04 штиль 0 н/о н/о +23.7 +17.2 67 +28 +28 душно 1012.6 1007.9 +36.1
17 22.04 ЮЗ 2 н/о н/о +22.6 +16.2 67 +27 +27 душно 1012.2 1007.5
20 22.04 ЮЗ 2 н/о 3/0
[]
+21.9 +13.3 58 +25 +25 комфорт 1012.6 1007.9
23 22.04 Ю 4 н/о 1/0
[]
+27.2 +11.3 37 +28 +28 жарко 1014.4 1009.7
02 23.04 В 6 н/о 1/0
[]
+32.9 +12.0 28 +33 +33 жарко 1013.6 1008.9 +21.8
05 23.04 В 3 н/о 1/0 2000 м
[]
+35.4 +14.1 28 +36 +36 очень
жарко
1010.8 1006.1
08 23.04 В 2 н/о 1/0
[]
+33.0 +13.6 31 +34 +34 очень
жарко
1010.9 1006.2
11 23.04 СВ 4 н/о 4/0
[]
+29.0 +20.4 60 +36 +36 очень
душно
1013.5 1008.8
14 23.04 С 2 н/о н/о +25.8 +21.5 77 +33 +33 очень
душно
1013.1 1008.4 +35.9
17 23.04 ЮЗ 3 н/о н/о +24.6 +21.3 82 +31 +31 очень
душно
1012.5 1007.8
20 23.04 штиль 0 н/о н/о +22.2 +18.4 79 +27 +27 душно 1012.9 1008.2
23 23.04 ЮВ 5 н/о 8/0 2000 м
[]
+28.1 +13.2 40 +30 +30 жарко 1014.4 1009.7
02 24.04 ЮВ 5 н/о н/о +32.7 +13.4 31 +34 +34 очень
жарко
1013.9 1009.2 +21.9
05 24.04 ЮВ 4 н/о 1/0 2000 м
[]
+34.1 +12.4 27 +34 +34 очень
жарко
1010.9 1006.2
08 24.04 ЮВ 3 н/о 4/0
[]
+34.2 +12.0 26 +34 +34 очень
жарко
1010.5 1005.8
11 24.04 С 1 н/о 9/0
[]
+29.0 +17.2 49 +33 +33 очень
душно
1012.3 1007.6
14 24.04 СВ 1 н/о 3/0
[]
+28.2 +19.7 60 +34 +34 очень
душно
1012.7 1008.0 +35.8
17 24.04 ЮЗ 3 н/о н/о +26.3 +7.8 31 +26 +26 жарко 1012.1 1007.4
20 24.04 Ю 3 н/о н/о +24.5 +8.5 36 +25 +25 комфорт 1012.1 1007.4
23 24.04 Ю 5 н/о н/о +26.4 +9.3 34 +27 +27 жарко 1013.8 1009.1
02 25.04 Ю 5 н/о н/о +31.4 +10.7 28 +31 +31 жарко 1012.8 1008.1 +23.8
05 25.04 Ю 4 н/о 4/0
[]
+33.2 +9.9 24 +32 +32 жарко 1009.7 1005.0
08 25.04 Ю 3 н/о 3/0
[]
+32.5 +10.5 26 +32 +32 жарко 1009.8 1005.1
11 25.04 ЮЗ 1 н/о 4/0
[]
+27.1 +14.5 46 +30 +30 душно 1011.6 1006.9
14 25.04 штиль 0 н/о н/о +23.5 +14.8 58 +26 +26 жарко 1012.0 1007.3 +34.2
17 25.04 З 1 н/о н/о +20.5 +13.7 65 +24 +24 комфорт 1011.0 1006.3
20 25.04 Ю 3 н/о н/о +21.1 +11.2 53 +23 +23 комфорт 1010.9 1006.2
23 25.04 Ю 4 н/о н/о +26.4 +10.1 36 +27 +27 жарко 1012.6 1007.9

 

Местоположение метеостанции Аэропорт Макартур Ривер Майн (Северная территория, Австралия): широта -16.43 долгота 136.07 высота над уровнем моря 41 м.

В архиве по умолчанию представлена погода в Аэропорту Макартур Ривер Майн за последнюю неделю. Архивные данные за месяц целиком и за предыдущие месяцы, начиная с января 2011 года, Вы можете получить, выбрав интересующий диапазон дат из раскрывающегося списка и нажав кнопку "Ввод!".


*Определитесь, кто Вы:
робот инопланетянин человек

Внимание! Время в таблицах - всемирное. Для получения местного времени необходимо прибавить поправку, которая равна 9.5 ч.

Смотрите также архив погоды в соседних городах и на ближайших метеорологических станциях:

Погода в Борролооле (Северная территория, Австралия) (46 км)
Погода на Острове Центр (Северная территория, Австралия) (109 км)
Погода в Аэропорту Грут-Айленд (Северная территория, Австралия) (276 км)
Погода в Дейли Уотерс (Северная территория, Австралия) (289 км)
Погода на Острове Северо-восточный (Северная территория, Австралия) (323 км)
Погода на Острове Морнингтон (Квинсленд, Австралия) (332 км)
Погода в Булман Уимол (Северная территория, Австралия) (359 км)
Погода на Руднике Century Mine (Квинсленд, Австралия) (380 км)
Погода в Беркетауне (Квинсленд, Австралия) (396 км)
Погода в Теннант-Крике (Северная территория, Австралия) (408 км)

Пояснения к столбцам:

Ветер - указаны скорость ветра в м/с - средняя за 10 мин, порывы в срок и между сроками (в фигурных скобках) и направление, откуда дует ветер: С - северный, СВ - северо-восточный, В - восточный, ЮВ - юго-восточный, Ю - южный, ЮЗ - юго-западный, З - западный, СЗ - северо-западный.
Видимость - горизонтальная дальность видимости в метрах или километрах. При видимости от 1 до 10 км при отсутствии осадков обычно наблюдается дымка, при ухудшении видимости до 1 км и менее - туман. В сухую погоду видимость может ухудшаться дымом, пылью или мглою.
Явления - указаны атмосферные явления, наблюдавшиеся в срок или в последний час перед сроком; фигурными скобками обозначены явления, наблюдавшиеся между сроками (за 1-3 часа до срока); квадратными скобками обозначены град или гололедные отложения с указанием их диаметра в мм.
Облачность - указаны через наклонную черту общая и нижняя облачность в баллах и высота нижней границы облаков в метрах; квадратными скобками обозначены формы облаков: Ci - перистые, Cs - перисто-слоистые, Cc - перисто-кучевые, Ac - высококучевые, As - высокослоистые, Sc - слоисто-кучевые, Ns - слоисто-дождевые, Cu - кучевые, Cb - кучево-дождевые. Подробнее классификацию облаков см. в Атласе облаков (PDF).
T - Температура воздуха - температура, измеренная на высоте 2 м над землей.
Td - Температура точки росы - температура, при понижении до которой содержащийся в воздухе водяной пар достигнет насыщения.
f - Относительная влажность воздуха - влажноcть воздуха, измеренная на высоте 2 м над землей.
Te - Эффективная температура - температура, которую ощущает одетый по сезону человек в тени. Характеристика душности погоды. При расчете учитывается влияние влажности воздуха и скорости ветра на теплоощущения человека.
Tes - Эффективная температура на солнце - температура, которую ощущает человек, с поправкой на солнечный нагрев. Характеристика знойности погоды. Зависит от высоты солнца над горизонтом, облачности и скорости ветра. Ночью, в пасмурную погоду, а также при ветре 12 м/с и более поправка равна нулю.
P - Атмосферное давление - приведенное к уровню моря атмосферное давление.
Po - Атмосферное давление - измеренное на уровне метеостанции атмосферное давление.
Tmin - Минимальная температура - минимум температуры воздуха на высоте 2 м над землей.
Tmax - Максимальная температура - максимум температуры воздуха на высоте 2 м над землей.
R - Количество осадков - Количество выпавших осадков за период времени, мм. При наведении курсора мыши на число - период времени, за который выпало указанное количество осадков.
R24 - Количество осадков - Количество выпавших осадков за 24 часа, мм.
S - Снежный покров - Высота снежного покрова, см. При наведении курсора мыши на число - состояние снежного покрова и степень покрытия местности в баллах.